Find OneWeb SL0054

NORAD ID: 45158 Int'l Des: 2020-008 Owner: ONEWEB Country: UK Constellation: oneweb operational
LEOCIRCULARPOLARONEWEB_TYPE

实时位置

正在加载3D地球...

关于 OneWeb SL0054

正在加载描述...

即将过境

Passes for default location (London). Set your location on the main map for personalized predictions.

高度历史

Loading altitude history...

两行轨道根数

1 45158U 20008AD 26106.76763610 .00000148 00000-0 38770-3 0 9995
2 45158 87.8836 48.4840 0001890 81.7914 278.3428 13.10369460299985
Epoch: Apr 16, 2026 • Age: 10 hours

当前状态

高度 1230.8 km
速度 7.25 km/s
星下点 59.56°N, 43.48°W
发射日期 Feb 6, 2020
运行时间 6.1 years
类型 internet

技术详情

分类 Payload
质量 148.00 kg
干质量 140.00 kg
总质量 148.00 kg
长度 1.30 m
直径 1.00 m
跨度 5.00 m
形状 Trapezoid+2 pan
制造商 ONEWUS
平台类型 ARROW
阶段状态 In Orbit
所有者/国家 ONEWEB/UK

Most Searched